Time,TemperatureF,DewpointF,PressureIn,WindDirection,WindDirectionDegrees,WindSpeedMPH,WindSpeedGustMPH,Humidity,HourlyPrecipIn,Conditions,Clouds,dailyrainin,SoftwareType,DateUTC
2013-06-06 00:01:00,62.2,61.6,29.92,West,267,0.0,6.0,98,0.00,,---,0.53,VWS V14.00,2013-06-06 04:01:00,
2013-06-06 00:02:00,62.2,61.6,29.92,West,267,0.0,6.0,98,0.00,,---,0.53,VWS V14.00,2013-06-06 04:02:00,
2013-06-06 00:07:00,62.2,61.6,29.91,WNW,300,2.0,7.0,98,0.00,,---,0.53,VWS V14.00,2013-06-06 04:07:00,
2013-06-06 00:12:00,62.1,61.5,29.92,SSW,196,2.0,8.0,98,0.00,,---,0.00,VWS V14.00,2013-06-06 04:12:00,
2013-06-06 00:17:00,62.1,61.5,29.92,SSW,196,0.0,8.0,98,0.00,,---,0.00,VWS V14.00,2013-06-06 04:17:00,
2013-06-06 00:22:00,62.0,61.4,29.92,NW,324,3.0,8.0,98,0.00,,---,0.00,VWS V14.00,2013-06-06 04:22:00,
2013-06-06 00:27:00,62.0,61.4,29.92,NW,313,0.0,8.0,98,0.00,,---,0.00,VWS V14.00,2013-06-06 04:27:00,
2013-06-06 00:32:00,62.0,61.4,29.92,WNW,290,0.0,8.0,98,0.00,,---,0.00,VWS V14.00,2013-06-06 04:32:00,
2013-06-06 00:37:00,61.9,61.3,29.92,NW,321,0.0,8.0,98,0.00,,---,0.00,VWS V14.00,2013-06-06 04:37:00,
2013-06-06 00:42:00,61.9,61.3,29.91,NW,321,0.0,0.0,98,0.00,,---,0.00,VWS V14.00,2013-06-06 04:42:00,
2013-06-06 00:47:00,61.9,61.3,29.91,NW,321,0.0,0.0,98,0.00,,---,0.00,VWS V14.00,2013-06-06 04:47:00,
2013-06-06 00:52:00,61.8,61.2,29.91,West,265,0.0,4.0,98,0.00,,---,0.00,VWS V14.00,2013-06-06 04:52:00,
2013-06-06 00:57:00,61.8,61.2,29.91,SW,234,0.0,4.0,98,0.00,,---,0.00,VWS V14.00,2013-06-06 04:57:00,
2013-06-06 01:02:00,61.8,61.2,29.91,SW,233,0.0,4.0,98,0.00,,---,0.00,VWS V14.00,2013-06-06 05:02:00,
2013-06-06 01:07:00,61.7,61.1,29.91,WSW,240,0.0,4.0,98,0.00,,---,0.00,VWS V14.00,2013-06-06 05:07:00,
2013-06-06 01:12:00,61.7,61.1,29.91,WSW,240,0.0,0.0,98,0.00,,---,0.00,VWS V14.00,2013-06-06 05:12:00,
2013-06-06 01:17:00,61.6,61.0,29.91,WSW,240,0.0,0.0,98,0.00,,---,0.00,VWS V14.00,2013-06-06 05:17:00,
2013-06-06 01:22:00,61.6,61.0,29.92,WSW,240,0.0,1.0,98,0.00,,---,0.00,VWS V14.00,2013-06-06 05:22:00,
2013-06-06 01:27:00,61.6,61.0,29.91,WSW,240,0.0,1.0,98,0.00,,---,0.00,VWS V14.00,2013-06-06 05:27:00,
2013-06-06 01:32:00,61.5,60.9,29.91,WSW,240,0.0,1.0,98,0.00,,---,0.00,VWS V14.00,2013-06-06 05:32:00,
2013-06-06 01:37:00,61.5,60.9,29.91,WSW,240,0.0,1.0,98,0.00,,---,0.00,VWS V14.00,2013-06-06 05:37:00,
2013-06-06 01:42:00,61.5,60.9,29.91,WSW,240,0.0,0.0,98,0.00,,---,0.00,VWS V14.00,2013-06-06 05:42:00,
2013-06-06 01:47:00,61.4,60.8,29.92,WSW,240,0.0,2.0,98,0.00,,---,0.00,VWS V14.00,2013-06-06 05:47:00,
2013-06-06 01:52:00,61.4,60.8,29.91,WSW,240,0.0,2.0,98,0.00,,---,0.00,VWS V14.00,2013-06-06 05:52:00,
2013-06-06 01:57:00,61.4,60.8,29.91,WSW,240,0.0,2.0,98,0.00,,---,0.00,VWS V14.00,2013-06-06 05:57:00,
2013-06-06 02:02:00,61.4,60.8,29.91,WSW,240,0.0,2.0,98,0.00,,---,0.00,VWS V14.00,2013-06-06 06:02:00,
2013-06-06 02:07:00,61.4,60.8,29.91,North,360,0.0,3.0,98,0.00,,---,0.00,VWS V14.00,2013-06-06 06:07:00,
2013-06-06 02:12:00,61.4,60.8,29.90,West,280,0.0,3.0,98,0.00,,---,0.00,VWS V14.00,2013-06-06 06:12:00,
2013-06-06 02:17:00,61.3,60.7,29.89,WSW,241,2.0,4.0,98,0.00,,---,0.00,VWS V14.00,2013-06-06 06:17:00,
2013-06-06 02:22:00,61.3,60.7,29.89,WSW,241,3.0,4.0,98,0.00,,---,0.00,VWS V14.00,2013-06-06 06:22:00,
2013-06-06 02:27:00,61.4,60.8,29.89,WSW,242,0.0,4.0,98,0.00,,---,0.00,VWS V14.00,2013-06-06 06:27:00,
2013-06-06 02:32:00,61.3,60.7,29.89,WSW,241,0.0,4.0,98,0.00,,---,0.00,VWS V14.00,2013-06-06 06:32:00,
2013-06-06 02:37:00,61.4,60.8,29.89,WSW,242,0.0,4.0,98,0.00,,---,0.00,VWS V14.00,2013-06-06 06:37:00,
2013-06-06 02:42:00,61.4,60.8,29.89,WSW,242,0.0,2.0,98,0.00,,---,0.00,VWS V14.00,2013-06-06 06:42:00,
2013-06-06 02:47:00,61.4,60.8,29.89,WSW,242,2.0,2.0,98,0.00,,---,0.00,VWS V14.00,2013-06-06 06:47:00,
2013-06-06 02:52:00,61.4,60.8,29.88,WSW,242,0.0,3.0,98,0.00,,---,0.00,VWS V14.00,2013-06-06 06:52:00,
2013-06-06 02:57:00,61.4,60.8,29.88,WSW,242,0.0,3.0,98,0.00,,---,0.00,VWS V14.00,2013-06-06 06:57:00,
2013-06-06 03:02:00,61.3,60.7,29.88,WSW,244,0.0,3.0,98,0.00,,---,0.00,VWS V14.00,2013-06-06 07:02:00,
2013-06-06 03:07:00,61.3,60.7,29.88,WSW,244,0.0,3.0,98,0.00,,---,0.00,VWS V14.00,2013-06-06 07:07:00,
2013-06-06 03:12:00,61.3,60.7,29.88,WSW,244,1.0,3.0,98,0.00,,---,0.00,VWS V14.00,2013-06-06 07:12:00,
2013-06-06 03:17:00,61.2,60.6,29.87,WSW,244,0.0,3.0,98,0.00,,---,0.00,VWS V14.00,2013-06-06 07:17:00,
2013-06-06 03:22:00,61.2,60.6,29.87,WSW,244,0.0,3.0,98,0.00,,---,0.00,VWS V14.00,2013-06-06 07:22:00,
2013-06-06 03:27:00,61.2,60.6,29.87,WSW,244,0.0,3.0,98,0.00,,---,0.00,VWS V14.00,2013-06-06 07:27:00,
2013-06-06 03:32:00,61.2,60.6,29.87,ENE,65,0.0,3.0,98,0.00,,---,0.00,VWS V14.00,2013-06-06 07:32:00,
2013-06-06 03:37:00,61.1,60.5,29.87,ENE,66,0.0,3.0,98,0.00,,---,0.00,VWS V14.00,2013-06-06 07:37:00,
2013-06-06 03:42:00,61.2,60.6,29.86,NE,46,0.0,2.0,98,0.00,,---,0.00,VWS V14.00,2013-06-06 07:42:00,
2013-06-06 03:47:00,61.2,60.6,29.86,NW,317,0.0,3.0,98,0.00,,---,0.00,VWS V14.00,2013-06-06 07:47:00,
2013-06-06 03:52:00,61.2,60.6,29.86,NW,317,0.0,3.0,98,0.00,,---,0.00,VWS V14.00,2013-06-06 07:52:00,
2013-06-06 03:57:00,61.1,60.5,29.86,NW,314,0.0,3.0,98,0.00,,---,0.00,VWS V14.00,2013-06-06 07:57:00,
2013-06-06 04:02:00,61.1,60.5,29.86,NW,314,0.0,3.0,98,0.00,,---,0.00,VWS V14.00,2013-06-06 08:02:00,
2013-06-06 04:07:00,61.1,60.5,29.86,WSW,255,0.0,4.0,98,0.00,,---,0.00,VWS V14.00,2013-06-06 08:07:00,
2013-06-06 04:12:00,61.1,60.5,29.86,WSW,255,0.0,1.0,98,0.00,,---,0.00,VWS V14.00,2013-06-06 08:12:00,
2013-06-06 04:17:00,61.1,60.5,29.86,WSW,254,0.0,1.0,98,0.00,,---,0.00,VWS V14.00,2013-06-06 08:17:00,
2013-06-06 04:22:00,61.1,60.5,29.86,WSW,255,0.0,1.0,98,0.00,,---,0.00,VWS V14.00,2013-06-06 08:22:00,
2013-06-06 04:27:00,61.0,60.4,29.86,West,266,3.0,3.0,98,0.00,,---,0.00,VWS V14.00,2013-06-06 08:27:00,
2013-06-06 04:32:00,61.0,60.4,29.85,West,269,0.0,3.0,98,0.00,,---,0.00,VWS V14.00,2013-06-06 08:32:00,
2013-06-06 04:37:00,61.0,60.4,29.85,West,270,0.0,3.0,98,0.00,,---,0.00,VWS V14.00,2013-06-06 08:37:00,
2013-06-06 04:42:00,61.0,60.4,29.85,West,277,1.0,3.0,98,0.00,,---,0.00,VWS V14.00,2013-06-06 08:42:00,
2013-06-06 04:47:00,61.0,60.4,29.85,West,277,0.0,3.0,98,0.00,,---,0.00,VWS V14.00,2013-06-06 08:47:00,
2013-06-06 04:52:00,60.9,60.3,29.85,WNW,302,0.0,4.0,98,0.00,,---,0.00,VWS V14.00,2013-06-06 08:52:00,
2013-06-06 04:57:00,60.9,60.3,29.85,WNW,302,0.0,4.0,98,0.00,,---,0.00,VWS V14.00,2013-06-06 08:57:00,
2013-06-06 05:02:00,60.8,60.2,29.85,WNW,302,0.0,4.0,98,0.00,,---,0.00,VWS V14.00,2013-06-06 09:02:00,
2013-06-06 05:07:00,60.7,60.1,29.85,WNW,302,0.0,4.0,98,0.00,,---,0.00,VWS V14.00,2013-06-06 09:07:00,
2013-06-06 05:12:00,60.7,60.1,29.87,WNW,302,0.0,0.0,98,0.00,,---,0.00,VWS V14.00,2013-06-06 09:12:00,
2013-06-06 05:17:00,60.7,60.1,29.87,WNW,302,0.0,1.0,98,0.00,,---,0.00,VWS V14.00,2013-06-06 09:17:00,
2013-06-06 05:22:00,60.7,60.1,29.88,WNW,302,0.0,1.0,98,0.00,,---,0.00,VWS V14.00,2013-06-06 09:22:00,
2013-06-06 05:27:00,60.7,60.1,29.87,WNW,302,0.0,1.0,98,0.00,,---,0.00,VWS V14.00,2013-06-06 09:27:00,
2013-06-06 05:32:00,60.8,60.2,29.88,WNW,302,0.0,1.0,98,0.00,,---,0.00,VWS V14.00,2013-06-06 09:32:00,
2013-06-06 05:37:00,60.8,60.2,29.88,WNW,302,0.0,1.0,98,0.00,,---,0.00,VWS V14.00,2013-06-06 09:37:00,
2013-06-06 05:42:00,60.8,60.2,29.87,WNW,302,0.0,2.0,98,0.00,,---,0.00,VWS V14.00,2013-06-06 09:42:00,
2013-06-06 05:47:00,60.9,60.3,29.87,WNW,302,0.0,2.0,98,0.00,,---,0.00,VWS V14.00,2013-06-06 09:47:00,
2013-06-06 05:52:00,60.9,60.3,29.87,WNW,302,0.0,2.0,98,0.00,,---,0.00,VWS V14.00,2013-06-06 09:52:00,
2013-06-06 05:57:00,60.8,60.2,29.87,WNW,302,0.0,2.0,98,0.00,,---,0.00,VWS V14.00,2013-06-06 09:57:00,
2013-06-06 06:02:00,60.8,60.2,29.87,WNW,302,0.0,2.0,98,0.00,,---,0.00,VWS V14.00,2013-06-06 10:02:00,
2013-06-06 06:07:00,60.7,60.1,29.88,WNW,302,0.0,2.0,98,0.00,,---,0.00,VWS V14.00,2013-06-06 10:07:00,
2013-06-06 06:12:00,60.7,60.1,29.88,WNW,302,0.0,0.0,98,0.00,,---,0.00,VWS V14.00,2013-06-06 10:12:00,
2013-06-06 06:17:00,60.6,60.0,29.88,WNW,302,0.0,0.0,98,0.00,,---,0.00,VWS V14.00,2013-06-06 10:17:00,
2013-06-06 06:22:00,60.7,60.1,29.88,WNW,302,0.0,1.0,98,0.00,,---,0.00,VWS V14.00,2013-06-06 10:22:00,
2013-06-06 06:27:00,60.8,60.2,29.88,WNW,293,0.0,2.0,98,0.00,,---,0.00,VWS V14.00,2013-06-06 10:27:00,
2013-06-06 06:32:00,60.8,60.2,29.88,WNW,294,0.0,2.0,98,0.00,,---,0.00,VWS V14.00,2013-06-06 10:32:00,
2013-06-06 06:37:00,60.8,60.2,29.88,WNW,294,0.0,2.0,98,0.00,,---,0.00,VWS V14.00,2013-06-06 10:37:00,
2013-06-06 06:42:00,60.9,60.3,29.88,WNW,294,0.0,0.0,98,0.00,,---,0.00,VWS V14.00,2013-06-06 10:42:00,
2013-06-06 06:47:00,60.9,60.3,29.88,WNW,294,0.0,0.0,98,0.00,,---,0.00,VWS V14.00,2013-06-06 10:47:00,
2013-06-06 06:52:00,61.0,60.4,29.88,WNW,294,0.0,0.0,98,0.00,,---,0.00,VWS V14.00,2013-06-06 10:52:00,
2013-06-06 06:57:00,61.0,60.4,29.88,WNW,294,0.0,0.0,98,0.00,,---,0.00,VWS V14.00,2013-06-06 10:57:00,
2013-06-06 07:02:00,60.9,60.3,29.88,WNW,294,0.0,0.0,98,0.00,,---,0.00,VWS V14.00,2013-06-06 11:02:00,
2013-06-06 07:07:00,60.9,60.3,29.88,East,98,0.0,0.0,98,0.00,,---,0.00,VWS V14.00,2013-06-06 11:07:00,
2013-06-06 07:12:00,61.0,60.4,29.89,East,98,0.0,0.0,98,0.00,,---,0.00,VWS V14.00,2013-06-06 11:12:00,
2013-06-06 07:17:00,61.1,60.8,29.89,East,96,0.0,0.0,99,0.00,,---,0.00,VWS V14.00,2013-06-06 11:17:00,
2013-06-06 07:22:00,61.3,61.0,29.89,ENE,57,0.0,0.0,99,0.00,,---,0.00,VWS V14.00,2013-06-06 11:22:00,
2013-06-06 07:27:00,61.6,61.3,29.88,ENE,57,0.0,0.0,99,0.00,,---,0.00,VWS V14.00,2013-06-06 11:27:00,
2013-06-06 07:32:00,61.7,61.4,29.88,ENE,57,0.0,1.0,99,0.00,,---,0.00,VWS V14.00,2013-06-06 11:32:00,
2013-06-06 07:37:00,61.7,61.4,29.88,ENE,57,0.0,1.0,99,0.00,,---,0.00,VWS V14.00,2013-06-06 11:37:00,
2013-06-06 07:42:00,61.8,61.5,29.88,ENE,57,0.0,0.0,99,0.00,,---,0.00,VWS V14.00,2013-06-06 11:42:00,
2013-06-06 07:47:00,61.8,61.5,29.88,NNW,337,3.0,3.0,99,0.00,,---,0.00,VWS V14.00,2013-06-06 11:47:00,
2013-06-06 07:52:00,62.0,61.7,29.88,West,264,0.0,3.0,99,0.00,,---,0.00,VWS V14.00,2013-06-06 11:52:00,
2013-06-06 07:57:00,62.1,61.8,29.88,West,265,0.0,3.0,99,0.00,,---,0.00,VWS V14.00,2013-06-06 11:57:00,
2013-06-06 08:02:00,62.1,61.8,29.88,West,265,0.0,3.0,99,0.00,,---,0.00,VWS V14.00,2013-06-06 12:02:00,
2013-06-06 08:07:00,62.2,61.9,29.88,West,265,0.0,3.0,99,0.00,,---,0.00,VWS V14.00,2013-06-06 12:07:00,
2013-06-06 08:30:00,62.2,61.9,29.89,SSE,158,0.0,3.0,99,0.00,,---,0.00,VWS V14.00,2013-06-06 12:30:00,
2013-06-06 09:21:00,63.2,62.6,29.89,SSE,156,0.0,0.0,98,0.00,,---,0.00,VWS V14.00,2013-06-06 13:21:00,
2013-06-06 09:27:00,63.3,62.7,29.89,SSE,157,0.0,0.0,98,0.00,,---,0.00,VWS V14.00,2013-06-06 13:27:00,
2013-06-06 09:32:00,63.4,62.8,29.88,SSE,157,0.0,1.0,98,0.00,,---,0.00,VWS V14.00,2013-06-06 13:32:00,
2013-06-06 09:37:00,63.4,62.8,29.88,SSE,157,0.0,1.0,98,0.00,,---,0.00,VWS V14.00,2013-06-06 13:37:00,
2013-06-06 09:42:00,63.6,63.0,29.88,SSE,157,0.0,0.0,98,0.00,,---,0.00,VWS V14.00,2013-06-06 13:42:00,
2013-06-06 09:47:00,63.7,63.1,29.88,SSE,157,0.0,1.0,98,0.00,,---,0.00,VWS V14.00,2013-06-06 13:47:00,
2013-06-06 09:52:00,63.9,63.3,29.88,SSE,157,0.0,1.0,98,0.00,,---,0.00,VWS V14.00,2013-06-06 13:52:00,
2013-06-06 09:57:00,64.1,63.5,29.88,SSE,157,0.0,1.0,98,0.00,,---,0.00,VWS V14.00,2013-06-06 13:57:00,
2013-06-06 10:02:00,64.1,63.5,29.88,SSE,159,0.0,2.0,98,0.00,,---,0.00,VWS V14.00,2013-06-06 14:02:00,
2013-06-06 10:07:00,64.2,63.6,29.88,SSE,159,0.0,0.0,98,0.00,,---,0.00,VWS V14.00,2013-06-06 14:07:00,
2013-06-06 10:12:00,64.4,63.8,29.88,SSE,159,0.0,0.0,98,0.00,,---,0.00,VWS V14.00,2013-06-06 14:12:00,
2013-06-06 10:17:00,64.6,64.0,29.88,West,267,0.0,1.0,98,0.00,,---,0.00,VWS V14.00,2013-06-06 14:17:00,
2013-06-06 10:22:00,64.7,63.8,29.88,West,267,0.0,1.0,97,0.00,,---,0.00,VWS V14.00,2013-06-06 14:22:00,
2013-06-06 10:27:00,64.8,63.9,29.88,West,267,0.0,1.0,97,0.00,,---,0.00,VWS V14.00,2013-06-06 14:27:00,
2013-06-06 10:32:00,65.0,64.1,29.88,West,267,0.0,1.0,97,0.00,,---,0.00,VWS V14.00,2013-06-06 14:32:00,
2013-06-06 10:37:00,65.2,64.3,29.88,West,267,0.0,0.0,97,0.00,,---,0.00,VWS V14.00,2013-06-06 14:37:00,
2013-06-06 10:42:00,65.4,64.5,29.87,SSE,160,0.0,4.0,97,0.00,,---,0.00,VWS V14.00,2013-06-06 14:42:00,
2013-06-06 10:47:00,65.5,64.3,29.87,SSE,160,0.0,4.0,96,0.00,,---,0.00,VWS V14.00,2013-06-06 14:47:00,
2013-06-06 10:52:00,65.7,64.5,29.87,SSE,160,0.0,4.0,96,0.00,,---,0.00,VWS V14.00,2013-06-06 14:52:00,
2013-06-06 10:57:00,65.8,64.6,29.87,SSE,155,0.0,4.0,96,0.00,,---,0.00,VWS V14.00,2013-06-06 14:57:00,
2013-06-06 11:02:00,66.0,64.5,29.88,SSE,155,0.0,4.0,95,0.00,,---,0.00,VWS V14.00,2013-06-06 15:02:00,
2013-06-06 11:07:00,66.3,64.8,29.87,SSE,165,0.0,0.0,95,0.00,,---,0.00,VWS V14.00,2013-06-06 15:07:00,
2013-06-06 11:12:00,66.5,65.0,29.87,SSE,166,0.0,1.0,95,0.00,,---,0.00,VWS V14.00,2013-06-06 15:12:00,
2013-06-06 11:17:00,66.6,65.1,29.87,SE,135,0.0,1.0,95,0.00,,---,0.00,VWS V14.00,2013-06-06 15:17:00,
2013-06-06 11:22:00,66.7,64.9,29.87,West,272,0.0,1.0,94,0.00,,---,0.00,VWS V14.00,2013-06-06 15:22:00,
2013-06-06 11:27:00,66.8,65.0,29.87,West,272,0.0,1.0,94,0.00,,---,0.00,VWS V14.00,2013-06-06 15:27:00,
2013-06-06 11:32:00,67.2,65.7,29.87,West,272,0.0,1.0,95,0.00,,---,0.00,VWS V14.00,2013-06-06 15:32:00,
2013-06-06 11:37:00,67.4,65.6,29.87,West,270,0.0,0.0,94,0.00,,---,0.00,VWS V14.00,2013-06-06 15:37:00,
2013-06-06 11:42:00,67.4,65.3,29.87,West,269,0.0,1.0,93,0.00,,---,0.00,VWS V14.00,2013-06-06 15:42:00,
2013-06-06 11:47:00,67.4,65.3,29.86,West,270,0.0,1.0,93,0.00,,---,0.00,VWS V14.00,2013-06-06 15:47:00,
2013-06-06 11:52:00,67.8,66.0,29.86,West,270,0.0,1.0,94,0.00,,---,0.00,VWS V14.00,2013-06-06 15:52:00,
2013-06-06 11:57:00,68.1,66.0,29.86,WSW,239,0.0,1.0,93,0.00,,---,0.00,VWS V14.00,2013-06-06 15:57:00,
2013-06-06 12:02:00,68.3,66.2,29.86,WSW,238,0.0,1.0,93,0.00,,---,0.00,VWS V14.00,2013-06-06 16:02:00,
2013-06-06 12:07:00,68.5,66.1,29.86,WSW,239,0.0,0.0,92,0.00,,---,0.00,VWS V14.00,2013-06-06 16:07:00,
2013-06-06 12:12:00,68.6,66.2,29.86,WSW,240,0.0,1.0,92,0.00,,---,0.00,VWS V14.00,2013-06-06 16:12:00,
2013-06-06 12:17:00,68.5,65.8,29.85,WSW,239,0.0,1.0,91,0.00,,---,0.00,VWS V14.00,2013-06-06 16:17:00,
2013-06-06 12:22:00,68.6,65.9,29.86,WSW,238,0.0,1.0,91,0.00,,---,0.00,VWS V14.00,2013-06-06 16:22:00,
2013-06-06 12:27:00,68.6,65.6,29.85,WSW,238,0.0,1.0,90,0.00,,---,0.00,VWS V14.00,2013-06-06 16:27:00,
2013-06-06 12:32:00,69.3,66.9,29.85,WSW,239,0.0,1.0,92,0.00,,---,0.00,VWS V14.00,2013-06-06 16:32:00,
2013-06-06 12:37:00,69.6,66.5,29.85,South,190,0.0,0.0,90,0.00,,---,0.00,VWS V14.00,2013-06-06 16:37:00,
2013-06-06 12:42:00,69.9,66.5,29.84,South,190,0.0,1.0,89,0.00,,---,0.00,VWS V14.00,2013-06-06 16:42:00,
2013-06-06 12:47:00,70.3,66.6,29.85,South,190,0.0,1.0,88,0.00,,---,0.00,VWS V14.00,2013-06-06 16:47:00,
2013-06-06 12:52:00,70.6,67.2,29.84,South,190,0.0,1.0,89,0.00,,---,0.00,VWS V14.00,2013-06-06 16:52:00,
2013-06-06 12:57:00,70.9,67.2,29.84,East,92,0.0,1.0,88,0.00,,---,0.00,VWS V14.00,2013-06-06 16:57:00,
2013-06-06 13:02:00,71.1,67.0,29.84,East,92,0.0,2.0,87,0.00,,---,0.00,VWS V14.00,2013-06-06 17:02:00,
2013-06-06 13:07:00,71.3,67.2,29.84,East,92,0.0,1.0,87,0.00,,---,0.00,VWS V14.00,2013-06-06 17:07:00,
2013-06-06 13:12:00,71.4,67.7,29.83,East,90,1.0,1.0,88,0.00,,---,0.00,VWS V14.00,2013-06-06 17:12:00,
2013-06-06 13:17:00,71.4,67.3,29.83,East,89,0.0,1.0,87,0.00,,---,0.00,VWS V14.00,2013-06-06 17:17:00,
2013-06-06 13:22:00,71.3,66.9,29.83,East,87,0.0,1.0,86,0.00,,---,0.00,VWS V14.00,2013-06-06 17:22:00,
2013-06-06 13:27:00,71.7,68.0,29.83,East,82,0.0,1.0,88,0.00,,---,0.00,VWS V14.00,2013-06-06 17:27:00,
2013-06-06 13:32:00,71.7,66.9,29.83,WSW,249,0.0,1.0,85,0.00,,---,0.00,VWS V14.00,2013-06-06 17:32:00,
2013-06-06 13:37:00,71.8,67.4,29.83,NE,48,0.0,0.0,86,0.00,,---,0.00,VWS V14.00,2013-06-06 17:37:00,
2013-06-06 13:42:00,72.1,67.7,29.82,SSE,153,0.0,1.0,86,0.00,,---,0.00,VWS V14.00,2013-06-06 17:42:00,
2013-06-06 13:47:00,72.5,68.4,29.81,SSE,153,0.0,1.0,87,0.00,,---,0.00,VWS V14.00,2013-06-06 17:47:00,
2013-06-06 13:52:00,72.8,68.0,29.82,SSE,152,0.0,1.0,85,0.00,,---,0.00,VWS V14.00,2013-06-06 17:52:00,
2013-06-06 13:57:00,73.2,68.4,29.81,SE,134,0.0,1.0,85,0.00,,---,0.00,VWS V14.00,2013-06-06 17:57:00,
2013-06-06 14:02:00,73.4,68.3,29.81,SE,134,0.0,1.0,84,0.00,,---,0.00,VWS V14.00,2013-06-06 18:02:00,
2013-06-06 14:07:00,74.0,69.2,29.80,SE,134,0.0,1.0,85,0.00,,---,0.00,VWS V14.00,2013-06-06 18:07:00,
2013-06-06 14:12:00,74.2,68.0,29.80,SE,134,0.0,1.0,81,0.00,,---,0.00,VWS V14.00,2013-06-06 18:12:00,
2013-06-06 14:17:00,74.4,67.8,29.80,SE,134,0.0,1.0,80,0.00,,---,0.00,VWS V14.00,2013-06-06 18:17:00,
2013-06-06 14:22:00,74.9,69.0,29.79,SE,134,0.0,1.0,82,0.00,,---,0.00,VWS V14.00,2013-06-06 18:22:00,
2013-06-06 14:27:00,75.5,68.9,29.79,SE,136,1.0,2.0,80,0.00,,---,0.00,VWS V14.00,2013-06-06 18:27:00,
2013-06-06 14:32:00,75.9,67.8,29.79,SE,136,0.0,2.0,76,0.00,,---,0.00,VWS V14.00,2013-06-06 18:32:00,
2013-06-06 14:37:00,76.4,69.0,29.79,North,351,0.0,0.0,78,0.00,,---,0.00,VWS V14.00,2013-06-06 18:37:00,
2013-06-06 14:42:00,76.9,69.5,29.78,SSE,161,0.0,2.0,78,0.00,,---,0.00,VWS V14.00,2013-06-06 18:42:00,
2013-06-06 14:47:00,77.0,68.5,29.78,SSE,148,0.0,2.0,75,0.00,,---,0.00,VWS V14.00,2013-06-06 18:47:00,
2013-06-06 14:52:00,77.3,69.9,29.78,SSE,148,0.0,2.0,78,0.00,,---,0.00,VWS V14.00,2013-06-06 18:52:00,
2013-06-06 14:57:00,77.5,69.3,29.78,ESE,110,0.0,3.0,76,0.00,,---,0.00,VWS V14.00,2013-06-06 18:57:00,
2013-06-06 15:02:00,77.7,69.9,29.77,ESE,110,1.0,3.0,77,0.00,,---,0.00,VWS V14.00,2013-06-06 19:02:00,
2013-06-06 15:07:00,77.6,68.7,29.77,WNW,298,1.0,2.0,74,0.00,,---,0.00,VWS V14.00,2013-06-06 19:07:00,
2013-06-06 15:12:00,77.6,69.4,29.77,ESE,120,0.0,2.0,76,0.00,,---,0.00,VWS V14.00,2013-06-06 19:12:00,
2013-06-06 15:17:00,77.4,68.9,29.77,West,271,3.0,4.0,75,0.00,,---,0.00,VWS V14.00,2013-06-06 19:17:00,
2013-06-06 15:22:00,76.9,68.4,29.77,SSW,200,2.0,6.0,75,0.00,,---,0.00,VWS V14.00,2013-06-06 19:22:00,
2013-06-06 15:27:00,76.5,68.8,29.76,WSW,252,0.0,6.0,77,0.00,,---,0.00,VWS V14.00,2013-06-06 19:27:00,
2013-06-06 15:32:00,76.3,68.6,29.77,WNW,299,0.0,6.0,77,0.00,,---,0.00,VWS V14.00,2013-06-06 19:32:00,
2013-06-06 15:34:00,76.3,68.6,29.77,NW,325,2.0,6.0,77,0.00,,---,0.00,VWS V14.00,2013-06-06 19:34:00,
2013-06-06 15:39:00,75.9,68.6,29.77,ESE,108,0.0,1.0,78,0.00,,---,0.00,VWS V14.00,2013-06-06 19:39:00,
2013-06-06 15:44:00,75.5,68.5,29.78,South,172,0.0,3.0,79,0.00,,---,0.00,VWS V14.00,2013-06-06 19:44:00,
2013-06-06 15:49:00,75.4,68.4,29.77,South,180,0.0,3.0,79,0.00,,---,0.00,VWS V14.00,2013-06-06 19:49:00,
2013-06-06 15:54:00,75.4,68.4,29.77,SW,229,0.0,3.0,79,0.00,,---,0.00,VWS V14.00,2013-06-06 19:54:00,
2013-06-06 15:59:00,75.4,68.1,29.77,South,184,0.0,4.0,78,0.00,,---,0.00,VWS V14.00,2013-06-06 19:59:00,
2013-06-06 16:04:00,75.3,68.3,29.77,SSW,202,2.0,4.0,79,0.00,,---,0.00,VWS V14.00,2013-06-06 20:04:00,
2013-06-06 16:09:00,75.1,68.9,29.77,SSW,202,0.0,0.0,81,0.00,,---,0.00,VWS V14.00,2013-06-06 20:09:00,
2013-06-06 16:14:00,74.9,68.3,29.77,SW,222,0.0,4.0,80,0.00,,---,0.00,VWS V14.00,2013-06-06 20:14:00,
2013-06-06 16:19:00,74.7,68.5,29.76,SW,223,0.0,4.0,81,0.00,,---,0.00,VWS V14.00,2013-06-06 20:19:00,
2013-06-06 16:24:00,74.7,68.5,29.76,SW,223,0.0,4.0,81,0.00,,---,0.00,VWS V14.00,2013-06-06 20:24:00,
2013-06-06 16:29:00,74.7,68.5,29.76,SW,222,0.0,4.0,81,0.00,,---,0.00,VWS V14.00,2013-06-06 20:29:00,
2013-06-06 16:34:00,74.8,68.6,29.77,SW,226,0.0,4.0,81,0.00,,---,0.00,VWS V14.00,2013-06-06 20:34:00,
2013-06-06 16:39:00,75.0,69.1,29.76,SW,227,1.0,1.0,82,0.00,,---,0.00,VWS V14.00,2013-06-06 20:39:00,
2013-06-06 16:44:00,75.3,68.7,29.75,WNW,289,0.0,2.0,80,0.00,,---,0.00,VWS V14.00,2013-06-06 20:44:00,
2013-06-06 16:49:00,75.7,68.7,29.76,WSW,248,0.0,2.0,79,0.00,,---,0.00,VWS V14.00,2013-06-06 20:49:00,
2013-06-06 16:54:00,76.3,68.9,29.75,WSW,251,0.0,2.0,78,0.00,,---,0.00,VWS V14.00,2013-06-06 20:54:00,
2013-06-06 16:59:00,76.9,69.2,29.74,WSW,249,1.0,2.0,77,0.00,,---,0.00,VWS V14.00,2013-06-06 20:59:00,
2013-06-06 17:04:00,77.4,68.9,29.74,SE,126,0.0,3.0,75,0.00,,---,0.00,VWS V14.00,2013-06-06 21:04:00,
2013-06-06 17:09:00,77.3,69.2,29.74,SW,236,0.0,1.0,76,0.00,,---,0.00,VWS V14.00,2013-06-06 21:09:00,
2013-06-06 17:14:00,77.4,70.0,29.74,SW,236,0.0,1.0,78,0.00,,---,0.00,VWS V14.00,2013-06-06 21:14:00,
2013-06-06 17:19:00,77.1,69.0,29.74,WNW,299,0.0,3.0,76,0.00,,---,0.00,VWS V14.00,2013-06-06 21:19:00,
2013-06-06 17:24:00,76.8,69.1,29.74,West,273,0.0,3.0,77,0.00,,---,0.00,VWS V14.00,2013-06-06 21:24:00,
2013-06-06 17:29:00,76.6,68.9,29.74,West,273,0.0,3.0,77,0.00,,---,0.00,VWS V14.00,2013-06-06 21:29:00,
2013-06-06 17:34:00,76.3,68.6,29.74,West,273,0.0,3.0,77,0.00,,---,0.00,VWS V14.00,2013-06-06 21:34:00,
2013-06-06 17:39:00,76.0,68.7,29.74,West,273,0.0,0.0,78,0.00,,---,0.00,VWS V14.00,2013-06-06 21:39:00,
2013-06-06 17:44:00,75.7,68.7,29.74,West,273,0.0,0.0,79,0.00,,---,0.00,VWS V14.00,2013-06-06 21:44:00,
2013-06-06 17:49:00,75.4,68.4,29.74,West,273,0.0,0.0,79,0.00,,---,0.00,VWS V14.00,2013-06-06 21:49:00,
2013-06-06 17:54:00,75.2,69.0,29.74,West,273,0.0,0.0,81,0.00,,---,0.00,VWS V14.00,2013-06-06 21:54:00,
2013-06-06 17:59:00,74.9,67.9,29.74,West,273,0.0,0.0,79,0.00,,---,0.00,VWS V14.00,2013-06-06 21:59:00,
2013-06-06 18:04:00,74.6,68.4,29.74,West,273,0.0,0.0,81,0.00,,---,0.00,VWS V14.00,2013-06-06 22:04:00,
2013-06-06 18:09:00,74.3,67.7,29.75,West,273,0.0,0.0,80,0.00,,---,0.00,VWS V14.00,2013-06-06 22:09:00,
2013-06-06 18:14:00,74.1,68.3,29.74,West,273,0.0,0.0,82,0.00,,---,0.00,VWS V14.00,2013-06-06 22:14:00,
2013-06-06 18:19:00,73.8,68.0,29.74,West,273,0.0,0.0,82,0.00,,---,0.00,VWS V14.00,2013-06-06 22:19:00,
2013-06-06 18:24:00,73.6,68.1,29.74,West,273,0.0,1.0,83,0.00,,---,0.00,VWS V14.00,2013-06-06 22:24:00,
2013-06-06 18:29:00,73.5,68.7,29.74,West,273,0.0,1.0,85,0.00,,---,0.00,VWS V14.00,2013-06-06 22:29:00,
2013-06-06 18:34:00,73.4,68.6,29.75,West,273,0.0,1.0,85,0.00,,---,0.00,VWS V14.00,2013-06-06 22:34:00,
2013-06-06 18:39:00,73.3,68.5,29.74,West,273,0.0,0.0,85,0.00,,---,0.00,VWS V14.00,2013-06-06 22:39:00,
2013-06-06 18:44:00,73.1,67.6,29.75,West,273,0.0,1.0,83,0.00,,---,0.00,VWS V14.00,2013-06-06 22:44:00,
2013-06-06 18:49:00,73.0,67.9,29.75,West,273,0.0,1.0,84,0.00,,---,0.00,VWS V14.00,2013-06-06 22:49:00,
2013-06-06 18:54:00,72.9,67.1,29.75,NNE,26,0.0,1.0,82,0.00,,---,0.00,VWS V14.00,2013-06-06 22:54:00,
2013-06-06 18:59:00,72.8,67.0,29.75,NNE,26,0.0,1.0,82,0.00,,---,0.00,VWS V14.00,2013-06-06 22:59:00,
2013-06-06 19:04:00,72.6,67.2,29.75,NE,44,0.0,3.0,83,0.00,,---,0.00,VWS V14.00,2013-06-06 23:04:00,
2013-06-06 19:09:00,72.4,67.3,29.75,NNW,344,0.0,3.0,84,0.00,,---,0.00,VWS V14.00,2013-06-06 23:09:00,
2013-06-06 19:14:00,72.0,66.9,29.75,WNW,302,0.0,3.0,84,0.00,,---,0.00,VWS V14.00,2013-06-06 23:14:00,
2013-06-06 19:19:00,71.8,67.1,29.75,WSW,243,0.0,4.0,85,0.00,,---,0.00,VWS V14.00,2013-06-06 23:19:00,
2013-06-06 19:24:00,71.4,66.7,29.75,West,277,2.0,4.0,85,0.00,,---,0.00,VWS V14.00,2013-06-06 23:24:00,
2013-06-06 19:29:00,71.2,66.8,29.75,West,271,0.0,4.0,86,0.00,,---,0.00,VWS V14.00,2013-06-06 23:29:00,
2013-06-06 19:34:00,71.1,67.0,29.75,West,271,0.0,4.0,87,0.00,,---,0.00,VWS V14.00,2013-06-06 23:34:00,
2013-06-06 19:39:00,71.0,66.9,29.75,West,271,0.0,0.0,87,0.00,,---,0.00,VWS V14.00,2013-06-06 23:39:00,
2013-06-06 19:44:00,70.8,66.7,29.75,West,271,0.0,0.0,87,0.00,,---,0.00,VWS V14.00,2013-06-06 23:44:00,
2013-06-06 19:49:00,70.7,66.7,29.76,West,271,0.0,0.0,87,0.00,,---,0.00,VWS V14.00,2013-06-06 23:49:00,
2013-06-06 19:54:00,70.6,66.6,29.75,West,271,0.0,0.0,87,0.00,,---,0.00,VWS V14.00,2013-06-06 23:54:00,
2013-06-06 19:59:00,70.5,66.4,29.76,West,271,0.0,0.0,87,0.00,,---,0.00,VWS V14.00,2013-06-06 23:59:00,
2013-06-06 20:04:00,70.4,66.7,29.76,West,271,0.0,0.0,88,0.00,,---,0.00,VWS V14.00,2013-06-07 00:04:00,
2013-06-06 20:09:00,70.3,66.6,29.76,West,271,0.0,0.0,88,0.00,,---,0.00,VWS V14.00,2013-06-07 00:09:00,
2013-06-06 20:14:00,70.0,66.0,29.76,West,271,0.0,0.0,87,0.00,,---,0.00,VWS V14.00,2013-06-07 00:14:00,
2013-06-06 20:19:00,69.8,66.1,29.76,West,271,0.0,0.0,88,0.00,,---,0.00,VWS V14.00,2013-06-07 00:19:00,
2013-06-06 20:24:00,69.7,66.3,29.76,West,271,0.0,0.0,89,0.00,,---,0.00,VWS V14.00,2013-06-07 00:24:00,
2013-06-06 20:29:00,69.6,66.2,29.75,West,271,0.0,0.0,89,0.00,,---,0.00,VWS V14.00,2013-06-07 00:29:00,
2013-06-06 20:34:00,69.5,66.1,29.76,West,271,0.0,0.0,89,0.00,,---,0.00,VWS V14.00,2013-06-07 00:34:00,
2013-06-06 20:39:00,69.4,66.0,29.76,West,271,0.0,0.0,89,0.00,,---,0.00,VWS V14.00,2013-06-07 00:39:00,
2013-06-06 20:44:00,69.2,65.8,29.76,West,271,0.0,0.0,89,0.00,,---,0.00,VWS V14.00,2013-06-07 00:44:00,
2013-06-06 20:49:00,69.1,66.1,29.76,West,271,0.0,0.0,90,0.00,,---,0.00,VWS V14.00,2013-06-07 00:49:00,
2013-06-06 20:54:00,68.9,65.8,29.76,West,271,0.0,0.0,90,0.00,,---,0.00,VWS V14.00,2013-06-07 00:54:00,
2013-06-06 20:59:00,68.8,65.8,29.76,West,271,0.0,0.0,90,0.00,,---,0.00,VWS V14.00,2013-06-07 00:59:00,
2013-06-06 21:04:00,68.6,65.6,29.75,West,271,0.0,0.0,90,0.00,,---,0.00,VWS V14.00,2013-06-07 01:04:00,
2013-06-06 21:09:00,68.4,65.7,29.76,West,271,0.0,0.0,91,0.00,,---,0.00,VWS V14.00,2013-06-07 01:09:00,
2013-06-06 21:14:00,68.2,65.5,29.76,West,271,0.0,0.0,91,0.00,,---,0.00,VWS V14.00,2013-06-07 01:14:00,
2013-06-06 21:19:00,68.0,65.3,29.75,West,271,0.0,0.0,91,0.00,,---,0.00,VWS V14.00,2013-06-07 01:19:00,
2013-06-06 21:23:00,67.7,65.3,29.75,West,271,0.0,0.0,92,0.00,,---,0.00,VWS V14.00,2013-06-07 01:23:00,
2013-06-06 21:28:00,67.5,65.1,29.75,West,271,0.0,0.0,92,0.00,,---,0.00,VWS V14.00,2013-06-07 01:28:00,
2013-06-06 21:33:00,67.4,65.3,29.76,West,271,0.0,0.0,93,0.00,,---,0.00,VWS V14.00,2013-06-07 01:33:00,
2013-06-06 21:38:00,67.3,65.2,29.76,West,271,0.0,0.0,93,0.00,,---,0.00,VWS V14.00,2013-06-07 01:38:00,
2013-06-06 21:43:00,67.2,65.1,29.76,West,271,0.0,0.0,93,0.00,,---,0.00,VWS V14.00,2013-06-07 01:43:00,
2013-06-06 21:48:00,67.2,65.4,29.76,West,271,0.0,0.0,94,0.00,,---,0.00,VWS V14.00,2013-06-07 01:48:00,
2013-06-06 21:53:00,67.2,65.4,29.76,West,271,0.0,0.0,94,0.00,,---,0.00,VWS V14.00,2013-06-07 01:53:00,
2013-06-06 21:58:00,67.1,65.3,29.76,West,271,0.0,0.0,94,0.00,,---,0.00,VWS V14.00,2013-06-07 01:58:00,
2013-06-06 22:03:00,67.1,65.3,29.76,West,271,0.0,0.0,94,0.00,,---,0.00,VWS V14.00,2013-06-07 02:03:00,
2013-06-06 22:08:00,67.0,65.2,29.76,West,271,0.0,0.0,94,0.00,,---,0.00,VWS V14.00,2013-06-07 02:08:00,
2013-06-06 22:13:00,67.0,65.2,29.76,West,271,0.0,0.0,94,0.00,,---,0.00,VWS V14.00,2013-06-07 02:13:00,
2013-06-06 22:18:00,67.0,65.2,29.76,West,271,0.0,0.0,94,0.00,,---,0.00,VWS V14.00,2013-06-07 02:18:00,
2013-06-06 22:23:00,66.9,65.1,29.76,West,271,0.0,0.0,94,0.00,,---,0.00,VWS V14.00,2013-06-07 02:23:00,
2013-06-06 22:28:00,66.9,65.1,29.76,West,271,0.0,0.0,94,0.00,,---,0.00,VWS V14.00,2013-06-07 02:28:00,
2013-06-06 22:33:00,66.8,65.3,29.76,West,271,0.0,0.0,95,0.00,,---,0.00,VWS V14.00,2013-06-07 02:33:00,
2013-06-06 22:38:00,66.8,65.3,29.76,West,271,0.0,0.0,95,0.00,,---,0.00,VWS V14.00,2013-06-07 02:38:00,
2013-06-06 22:43:00,66.7,65.2,29.76,West,271,0.0,0.0,95,0.00,,---,0.00,VWS V14.00,2013-06-07 02:43:00,
2013-06-06 22:48:00,66.7,65.2,29.76,West,271,0.0,0.0,95,0.00,,---,0.00,VWS V14.00,2013-06-07 02:48:00,
2013-06-06 22:53:00,66.6,65.1,29.76,West,271,0.0,0.0,95,0.00,,---,0.00,VWS V14.00,2013-06-07 02:53:00,
2013-06-06 22:58:00,66.6,65.1,29.76,West,271,0.0,0.0,95,0.00,,---,0.00,VWS V14.00,2013-06-07 02:58:00,
2013-06-06 23:03:00,66.6,65.1,29.76,West,271,0.0,0.0,95,0.00,,---,0.00,VWS V14.00,2013-06-07 03:03:00,
2013-06-06 23:08:00,66.6,65.1,29.75,West,271,0.0,0.0,95,0.00,,---,0.00,VWS V14.00,2013-06-07 03:08:00,
2013-06-06 23:13:00,66.5,65.0,29.75,West,271,0.0,0.0,95,0.00,,---,0.00,VWS V14.00,2013-06-07 03:13:00,
2013-06-06 23:18:00,66.5,65.0,29.75,West,271,0.0,0.0,95,0.00,,---,0.00,VWS V14.00,2013-06-07 03:18:00,
2013-06-06 23:23:00,66.5,65.3,29.75,West,271,0.0,0.0,96,0.00,,---,0.00,VWS V14.00,2013-06-07 03:23:00,
2013-06-06 23:28:00,66.5,65.3,29.75,West,271,0.0,0.0,96,0.00,,---,0.00,VWS V14.00,2013-06-07 03:28:00,
2013-06-06 23:33:00,66.5,65.3,29.75,West,271,0.0,0.0,96,0.00,,---,0.00,VWS V14.00,2013-06-07 03:33:00,
2013-06-06 23:38:00,66.5,65.3,29.75,West,271,0.0,0.0,96,0.00,,---,0.00,VWS V14.00,2013-06-07 03:38:00,
2013-06-06 23:43:00,66.5,65.3,29.75,West,271,0.0,0.0,96,0.00,,---,0.00,VWS V14.00,2013-06-07 03:43:00,
2013-06-06 23:48:00,66.5,65.3,29.75,West,271,0.0,0.0,96,0.00,,---,0.00,VWS V14.00,2013-06-07 03:48:00,
2013-06-06 23:53:00,66.5,65.3,29.75,West,271,0.0,0.0,96,0.00,,---,0.00,VWS V14.00,2013-06-07 03:53:00,
2013-06-06 23:58:00,66.6,65.4,29.75,West,271,0.0,0.0,96,0.00,,---,0.00,VWS V14.00,2013-06-07 03:58:00,